Flag for China Weather past 2 weeks in Guilin, Guangxi, China

66 °F

Light rain. More clouds than sun.

Feels Like: 66 °F
Forecast: 68 / 75 °F
Wind: 1 mph from North

Location: Guilin Airport

Current Time: Oct 5, 2015 at 9:30:56 AM

Latest Report: Oct 5, 2015 at 9:00 AM

Visibility: 4 mi

Pressure: 30.04 "Hg

Humidity: 100%

Dew point: 66 °F

Location of GuilinLocation

Historic Weather in Guilin — Graph


Guilin temperature yesterday

Maximum temperature yesterday: 77 °F (at 1:00 AM)
Minimum temperature yesterday: 66 °F (at 11:00 PM)
Average temperature yesterday: 73 °F

Past Weeks' High & Low Weather Summary

High88 °F (Sep 28, 12:00 PM)100% (Sep 20, 8:00 AM)30.09 "Hg (Sep 20, 8:00 AM)
Low63 °F (Oct 2, 6:00 AM)35% (Oct 2, 1:00 PM)29.65 "Hg (Sep 24, 3:00 PM)
Average76 °F81%29.88 "Hg
* Reported Sep 20 8:00 AM — Oct 5 8:00 AM, Guilin, Weather by CustomWeather, © 2015

Note: Actual official high and low records may vary slightly from our data, if they occured in-between our weather recording intervals... More about our weather records


Guilin weather history for previous 24 hours

Time TempWeatherWind HumidityBarometerVisibility
8:00 AM
Mon, Oct 5
66 °FLight rain. More clouds than sun.1 mph94%30.01 "Hg4 mi
7:00 AM66 °FLight rain. More clouds than sun.3 mph94%30.01 "Hg5 mi
6:00 AM66 °FLight rain. Mostly cloudy.6 mph94%29.98 "Hg5 mi
5:00 AM66 °FLight rain. Mostly cloudy.8 mph94%30.01 "Hg4 mi
4:00 AM66 °FLight rain. Fog.8 mph94%30.01 "Hg3 mi
3:00 AM66 °FLight rain. Mostly cloudy.10 mph100%30.01 "Hg4 mi
2:00 AM66 °FLight rain. Mostly cloudy.8 mph100%30.01 "Hg4 mi
1:00 AM66 °FLight rain. Mostly cloudy.6 mph100%30.01 "Hg4 mi
12:00 AM68 °FLight rain. Overcast.8 mph94%30.04 "HgN/A
11:00 PM
Sun, Oct 4
66 °FLight rain. Fog.6 mph100%30.04 "Hg3 mi
10:00 PM68 °FLight rain. Fog.10 mph94%30.07 "Hg3 mi
9:00 PM68 °FLight rain. Fog.10 mph94%30.04 "Hg3 mi
8:00 PM68 °FLight rain. Fog.10 mph94%30.04 "Hg2 mi
7:00 PM68 °FLight rain. Fog.8 mph94%30.01 "Hg3 mi
6:00 PM68 °FLight rain. Fog.8 mph94%30.01 "Hg3 mi
5:00 PM70 °FLight rain. Fog.10 mph94%30.01 "Hg3 mi
4:00 PM70 °FLight rain. More clouds than sun.8 mph88%30.01 "Hg4 mi
3:00 PM72 °FLight rain. Scattered clouds.10 mph83%30.01 "Hg5 mi
2:00 PM73 °FScattered clouds.15 mph78%30.04 "HgN/A
1:00 PM75 °FScattered clouds.15 mph69%30.04 "HgN/A
12:00 PM72 °FLight rain. Scattered clouds.8 mph83%30.07 "Hg5 mi
11:00 AM75 °FLight rain. Scattered clouds.8 mph69%30.09 "HgN/A
10:00 AM77 °FPassing clouds.10 mph61%30.09 "HgN/A
9:00 AM75 °FScattered clouds.10 mph65%30.07 "HgN/A
Weather by CustomWeather, © 2015

See weather overviewHow to use our weather pages